owner,sensor,date,latitude,longitude,air_pressure(mBar),qcFlag 
WAVCIS,ioos:station:WAVCIS:CSI09:1,2008-11-01T00:00:00Z,29.1015,-89.9782,1027.72,11111222 
WAVCIS,ioos:station:WAVCIS:CSI09:1,2008-11-01T01:00:00Z,29.1015,-89.9782,1027.93,11111222 
WAVCIS,ioos:station:WAVCIS:CSI09:1,2008-11-01T02:00:00Z,29.1015,-89.9782,1027.66,11111222 
WAVCIS,ioos:station:WAVCIS:CSI09:1,2008-11-01T03:00:00Z,29.1015,-89.9782,1027.79,11111222 
WAVCIS,ioos:station:WAVCIS:CSI09:1,2008-11-01T04:00:00Z,29.1015,-89.9782,1027.65,11111222 
WAVCIS,ioos:station:WAVCIS:CSI09:1,2008-11-01T05:00:00Z,29.1015,-89.9782,1027.71,11111222 
WAVCIS,ioos:station:WAVCIS:CSI09:1,2008-11-01T06:00:00Z,29.1015,-89.9782,1027.19,11111222 
WAVCIS,ioos:station:WAVCIS:CSI09:1,2008-11-01T07:00:00Z,29.1015,-89.9782,1027.0,11111222 
WAVCIS,ioos:station:WAVCIS:CSI09:1,2008-11-01T08:00:00Z,29.1015,-89.9782,1026.52,11111222 
WAVCIS,ioos:station:WAVCIS:CSI09:1,2008-11-01T09:00:00Z,29.1015,-89.9782,1026.15,11111222 
WAVCIS,ioos:station:WAVCIS:CSI09:1,2008-11-01T10:00:00Z,29.1015,-89.9782,1025.95,11111222 
WAVCIS,ioos:station:WAVCIS:CSI09:1,2008-11-01T11:00:00Z,29.1015,-89.9782,1025.94,11111222 
WAVCIS,ioos:station:WAVCIS:CSI09:1,2008-11-01T12:00:00Z,29.1015,-89.9782,1026.08,11111222 
WAVCIS,ioos:station:WAVCIS:CSI09:1,2008-11-01T13:00:00Z,29.1015,-89.9782,1026.33,11111222 
WAVCIS,ioos:station:WAVCIS:CSI09:1,2008-11-01T14:00:00Z,29.1015,-89.9782,1026.7,11111222 
WAVCIS,ioos:station:WAVCIS:CSI09:1,2008-11-01T15:00:00Z,29.1015,-89.9782,1026.87,11111222 
WAVCIS,ioos:station:WAVCIS:CSI09:1,2008-11-01T16:00:00Z,29.1015,-89.9782,1026.93,11111222 
WAVCIS,ioos:station:WAVCIS:CSI09:1,2008-11-01T17:00:00Z,29.1015,-89.9782,1026.66,11111222 
WAVCIS,ioos:station:WAVCIS:CSI09:1,2008-11-01T18:00:00Z,29.1015,-89.9782,1025.95,11111222 
WAVCIS,ioos:station:WAVCIS:CSI09:1,2008-11-01T19:00:00Z,29.1015,-89.9782,1024.73,11111222 
WAVCIS,ioos:station:WAVCIS:CSI09:1,2008-11-01T20:00:00Z,29.1015,-89.9782,1023.99,11111222 
WAVCIS,ioos:station:WAVCIS:CSI09:1,2008-11-01T21:00:00Z,29.1015,-89.9782,1023.81,11111222 
WAVCIS,ioos:station:WAVCIS:CSI09:1,2008-11-01T22:00:00Z,29.1015,-89.9782,1023.98,11111222 
WAVCIS,ioos:station:WAVCIS:CSI09:1,2008-11-01T23:00:00Z,29.1015,-89.9782,1023.95,11111222 
WAVCIS,ioos:station:WAVCIS:CSI09:1,2008-11-02T00:00:00Z,29.1015,-89.9782,1024.19,11111222 
WAVCIS,ioos:station:WAVCIS:CSI09:1,2008-11-02T01:00:00Z,29.1015,-89.9782,1024.33,11111222 
WAVCIS,ioos:station:WAVCIS:CSI09:1,2008-11-02T02:00:00Z,29.1015,-89.9782,1024.4,11111222 
WAVCIS,ioos:station:WAVCIS:CSI09:1,2008-11-02T03:00:00Z,29.1015,-89.9782,1024.69,11111222 
WAVCIS,ioos:station:WAVCIS:CSI09:1,2008-11-02T04:00:00Z,29.1015,-89.9782,1024.48,11111222 
WAVCIS,ioos:station:WAVCIS:CSI09:1,2008-11-02T05:00:00Z,29.1015,-89.9782,1024.06,11111222 
WAVCIS,ioos:station:WAVCIS:CSI09:1,2008-11-02T06:00:00Z,29.1015,-89.9782,1023.62,11111222 
WAVCIS,ioos:station:WAVCIS:CSI09:1,2008-11-02T07:00:00Z,29.1015,-89.9782,1023.23,11111222 
WAVCIS,ioos:station:WAVCIS:CSI09:1,2008-11-02T08:00:00Z,29.1015,-89.9782,1022.81,11111222 
WAVCIS,ioos:station:WAVCIS:CSI09:1,2008-11-02T09:00:00Z,29.1015,-89.9782,1022.47,11111222 
WAVCIS,ioos:station:WAVCIS:CSI09:1,2008-11-02T10:00:00Z,29.1015,-89.9782,1022.26,11111222 
WAVCIS,ioos:station:WAVCIS:CSI09:1,2008-11-02T11:00:00Z,29.1015,-89.9782,1022.21,11111222 
WAVCIS,ioos:station:WAVCIS:CSI09:1,2008-11-02T12:00:00Z,29.1015,-89.9782,1022.55,11111222 
WAVCIS,ioos:station:WAVCIS:CSI09:1,2008-11-02T13:00:00Z,29.1015,-89.9782,1022.87,11111222 
WAVCIS,ioos:station:WAVCIS:CSI09:1,2008-11-02T14:00:00Z,29.1015,-89.9782,1023.55,11111222 
WAVCIS,ioos:station:WAVCIS:CSI09:1,2008-11-02T15:00:00Z,29.1015,-89.9782,1024.13,11111222 
WAVCIS,ioos:station:WAVCIS:CSI09:1,2008-11-02T16:00:00Z,29.1015,-89.9782,1023.84,11111222 
WAVCIS,ioos:station:WAVCIS:CSI09:1,2008-11-02T17:00:00Z,29.1015,-89.9782,1023.54,11111222 
WAVCIS,ioos:station:WAVCIS:CSI09:1,2008-11-02T18:00:00Z,29.1015,-89.9782,1023.0,11111222 
WAVCIS,ioos:station:WAVCIS:CSI09:1,2008-11-02T19:00:00Z,29.1015,-89.9782,1022.17,11111222 
WAVCIS,ioos:station:WAVCIS:CSI09:1,2008-11-02T20:00:00Z,29.1015,-89.9782,1021.52,11111222 
WAVCIS,ioos:station:WAVCIS:CSI09:1,2008-11-02T21:00:00Z,29.1015,-89.9782,1021.23,11111222 
WAVCIS,ioos:station:WAVCIS:CSI09:1,2008-11-02T22:00:00Z,29.1015,-89.9782,1021.08,11111222 
WAVCIS,ioos:station:WAVCIS:CSI09:1,2008-11-02T23:00:00Z,29.1015,-89.9782,1021.16,11111222 
WAVCIS,ioos:station:WAVCIS:CSI09:1,2008-11-03T00:00:00Z,29.1015,-89.9782,1021.6,11111222 
WAVCIS,ioos:station:WAVCIS:CSI09:1,2008-11-03T01:00:00Z,29.1015,-89.9782,1021.8,11111222 
WAVCIS,ioos:station:WAVCIS:CSI09:1,2008-11-03T02:00:00Z,29.1015,-89.9782,1021.96,11111222 
WAVCIS,ioos:station:WAVCIS:CSI09:1,2008-11-03T03:00:00Z,29.1015,-89.9782,1022.16,11111222 
WAVCIS,ioos:station:WAVCIS:CSI09:1,2008-11-03T04:00:00Z,29.1015,-89.9782,1021.88,11111222 
WAVCIS,ioos:station:WAVCIS:CSI09:1,2008-11-03T05:00:00Z,29.1015,-89.9782,1021.35,11111222 
WAVCIS,ioos:station:WAVCIS:CSI09:1,2008-11-03T06:00:00Z,29.1015,-89.9782,1020.91,11111222 
WAVCIS,ioos:station:WAVCIS:CSI09:1,2008-11-03T07:00:00Z,29.1015,-89.9782,1020.84,11111222 
WAVCIS,ioos:station:WAVCIS:CSI09:1,2008-11-03T08:00:00Z,29.1015,-89.9782,1020.49,11111222 
WAVCIS,ioos:station:WAVCIS:CSI09:1,2008-11-03T09:00:00Z,29.1015,-89.9782,1020.44,11111222 
WAVCIS,ioos:station:WAVCIS:CSI09:1,2008-11-03T10:00:00Z,29.1015,-89.9782,1020.46,11111222 
WAVCIS,ioos:station:WAVCIS:CSI09:1,2008-11-03T11:00:00Z,29.1015,-89.9782,1020.36,11111222 
WAVCIS,ioos:station:WAVCIS:CSI09:1,2008-11-03T12:00:00Z,29.1015,-89.9782,1020.93,11111222 
WAVCIS,ioos:station:WAVCIS:CSI09:1,2008-11-03T13:00:00Z,29.1015,-89.9782,1021.11,11111222 
WAVCIS,ioos:station:WAVCIS:CSI09:1,2008-11-03T14:00:00Z,29.1015,-89.9782,1021.49,11111222 
WAVCIS,ioos:station:WAVCIS:CSI09:1,2008-11-03T15:00:00Z,29.1015,-89.9782,1021.72,11111222 
WAVCIS,ioos:station:WAVCIS:CSI09:1,2008-11-03T16:00:00Z,29.1015,-89.9782,1021.81,11111222 
WAVCIS,ioos:station:WAVCIS:CSI09:1,2008-11-03T17:00:00Z,29.1015,-89.9782,1021.5,11111222 
WAVCIS,ioos:station:WAVCIS:CSI09:1,2008-11-03T18:00:00Z,29.1015,-89.9782,1020.82,11111222 
WAVCIS,ioos:station:WAVCIS:CSI09:1,2008-11-03T19:00:00Z,29.1015,-89.9782,1020.05,11111222 
WAVCIS,ioos:station:WAVCIS:CSI09:1,2008-11-03T20:00:00Z,29.1015,-89.9782,1019.51,11111222 
WAVCIS,ioos:station:WAVCIS:CSI09:1,2008-11-03T21:00:00Z,29.1015,-89.9782,1019.42,11111222 
WAVCIS,ioos:station:WAVCIS:CSI09:1,2008-11-03T22:00:00Z,29.1015,-89.9782,1019.56,11111222 
WAVCIS,ioos:station:WAVCIS:CSI09:1,2008-11-03T23:00:00Z,29.1015,-89.9782,1019.47,11111222 
WAVCIS,ioos:station:WAVCIS:CSI09:1,2008-11-04T00:00:00Z,29.1015,-89.9782,1019.69,11111222 
WAVCIS,ioos:station:WAVCIS:CSI09:1,2008-11-04T01:00:00Z,29.1015,-89.9782,1020.14,11111222 
WAVCIS,ioos:station:WAVCIS:CSI09:1,2008-11-04T02:00:00Z,29.1015,-89.9782,1020.38,11111222 
WAVCIS,ioos:station:WAVCIS:CSI09:1,2008-11-04T03:00:00Z,29.1015,-89.9782,1020.57,11111222 
WAVCIS,ioos:station:WAVCIS:CSI09:1,2008-11-04T04:00:00Z,29.1015,-89.9782,1020.59,11111222 
WAVCIS,ioos:station:WAVCIS:CSI09:1,2008-11-04T05:00:00Z,29.1015,-89.9782,1020.15,11111222 
WAVCIS,ioos:station:WAVCIS:CSI09:1,2008-11-04T06:00:00Z,29.1015,-89.9782,1019.67,11111222 
WAVCIS,ioos:station:WAVCIS:CSI09:1,2008-11-04T07:00:00Z,29.1015,-89.9782,1019.6,11111222 
WAVCIS,ioos:station:WAVCIS:CSI09:1,2008-11-04T08:00:00Z,29.1015,-89.9782,1019.26,11111222 
WAVCIS,ioos:station:WAVCIS:CSI09:1,2008-11-04T09:00:00Z,29.1015,-89.9782,1018.87,11111222 
WAVCIS,ioos:station:WAVCIS:CSI09:1,2008-11-04T10:00:00Z,29.1015,-89.9782,1018.92,11111222 
WAVCIS,ioos:station:WAVCIS:CSI09:1,2008-11-04T11:00:00Z,29.1015,-89.9782,1019.15,11111222 
WAVCIS,ioos:station:WAVCIS:CSI09:1,2008-11-04T12:00:00Z,29.1015,-89.9782,1019.57,11111222 
WAVCIS,ioos:station:WAVCIS:CSI09:1,2008-11-04T13:00:00Z,29.1015,-89.9782,1019.83,11111222 
WAVCIS,ioos:station:WAVCIS:CSI09:1,2008-11-04T14:00:00Z,29.1015,-89.9782,1020.02,11111222 
WAVCIS,ioos:station:WAVCIS:CSI09:1,2008-11-04T15:00:00Z,29.1015,-89.9782,1020.4,11111222 
WAVCIS,ioos:station:WAVCIS:CSI09:1,2008-11-04T16:00:00Z,29.1015,-89.9782,1020.4,11111222 
WAVCIS,ioos:station:WAVCIS:CSI09:1,2008-11-04T17:00:00Z,29.1015,-89.9782,1020.2,11111222 
WAVCIS,ioos:station:WAVCIS:CSI09:1,2008-11-04T18:00:00Z,29.1015,-89.9782,1019.52,11111222 
WAVCIS,ioos:station:WAVCIS:CSI09:1,2008-11-04T19:00:00Z,29.1015,-89.9782,1018.6,11111222 
WAVCIS,ioos:station:WAVCIS:CSI09:1,2008-11-04T20:00:00Z,29.1015,-89.9782,1018.13,11111222 
WAVCIS,ioos:station:WAVCIS:CSI09:1,2008-11-04T21:00:00Z,29.1015,-89.9782,1017.82,11111222 
WAVCIS,ioos:station:WAVCIS:CSI09:1,2008-11-04T22:00:00Z,29.1015,-89.9782,1017.68,11111222 
WAVCIS,ioos:station:WAVCIS:CSI09:1,2008-11-04T23:00:00Z,29.1015,-89.9782,1017.94,11111222 
WAVCIS,ioos:station:WAVCIS:CSI09:1,2008-11-05T00:00:00Z,29.1015,-89.9782,1018.18,11111222 
WAVCIS,ioos:station:WAVCIS:CSI09:1,2008-11-05T01:00:00Z,29.1015,-89.9782,1018.57,11111222 
WAVCIS,ioos:station:WAVCIS:CSI09:1,2008-11-05T02:00:00Z,29.1015,-89.9782,1018.95,11111222 
WAVCIS,ioos:station:WAVCIS:CSI09:1,2008-11-05T03:00:00Z,29.1015,-89.9782,1019.09,11111222 
WAVCIS,ioos:station:WAVCIS:CSI09:1,2008-11-05T04:00:00Z,29.1015,-89.9782,1019.0,11111222 
WAVCIS,ioos:station:WAVCIS:CSI09:1,2008-11-05T05:00:00Z,29.1015,-89.9782,1018.53,11111222 
WAVCIS,ioos:station:WAVCIS:CSI09:1,2008-11-05T06:00:00Z,29.1015,-89.9782,1018.18,11111222 
WAVCIS,ioos:station:WAVCIS:CSI09:1,2008-11-05T07:00:00Z,29.1015,-89.9782,1017.89,11111222 
WAVCIS,ioos:station:WAVCIS:CSI09:1,2008-11-05T08:00:00Z,29.1015,-89.9782,1017.55,11111222 
WAVCIS,ioos:station:WAVCIS:CSI09:1,2008-11-05T09:00:00Z,29.1015,-89.9782,1017.2,11111222 
WAVCIS,ioos:station:WAVCIS:CSI09:1,2008-11-05T10:00:00Z,29.1015,-89.9782,1017.13,11111222 
WAVCIS,ioos:station:WAVCIS:CSI09:1,2008-11-05T11:00:00Z,29.1015,-89.9782,1017.26,11111222 
WAVCIS,ioos:station:WAVCIS:CSI09:1,2008-11-05T12:00:00Z,29.1015,-89.9782,1017.46,11111222 
WAVCIS,ioos:station:WAVCIS:CSI09:1,2008-11-05T13:00:00Z,29.1015,-89.9782,1017.72,11111222 
WAVCIS,ioos:station:WAVCIS:CSI09:1,2008-11-05T14:00:00Z,29.1015,-89.9782,1018.24,11111222 
WAVCIS,ioos:station:WAVCIS:CSI09:1,2008-11-05T15:00:00Z,29.1015,-89.9782,1018.67,11111222 
WAVCIS,ioos:station:WAVCIS:CSI09:1,2008-11-05T16:00:00Z,29.1015,-89.9782,1018.51,11111222 
WAVCIS,ioos:station:WAVCIS:CSI09:1,2008-11-05T17:00:00Z,29.1015,-89.9782,1018.26,11111222 
WAVCIS,ioos:station:WAVCIS:CSI09:1,2008-11-05T18:00:00Z,29.1015,-89.9782,1017.5,11111222 
WAVCIS,ioos:station:WAVCIS:CSI09:1,2008-11-05T19:00:00Z,29.1015,-89.9782,1016.75,11111222 
WAVCIS,ioos:station:WAVCIS:CSI09:1,2008-11-05T20:00:00Z,29.1015,-89.9782,1016.24,11111222 
WAVCIS,ioos:station:WAVCIS:CSI09:1,2008-11-05T21:00:00Z,29.1015,-89.9782,1016.14,11111222 
WAVCIS,ioos:station:WAVCIS:CSI09:1,2008-11-05T22:00:00Z,29.1015,-89.9782,1016.05,11111222 
WAVCIS,ioos:station:WAVCIS:CSI09:1,2008-11-05T23:00:00Z,29.1015,-89.9782,1015.92,11111222 
WAVCIS,ioos:station:WAVCIS:CSI09:1,2008-11-06T00:00:00Z,29.1015,-89.9782,1015.9,11111222 
WAVCIS,ioos:station:WAVCIS:CSI09:1,2008-11-06T01:00:00Z,29.1015,-89.9782,1015.95,11111222 
WAVCIS,ioos:station:WAVCIS:CSI09:1,2008-11-06T02:00:00Z,29.1015,-89.9782,1016.28,11111222 
WAVCIS,ioos:station:WAVCIS:CSI09:1,2008-11-06T03:00:00Z,29.1015,-89.9782,1016.04,11111222 
WAVCIS,ioos:station:WAVCIS:CSI09:1,2008-11-06T04:00:00Z,29.1015,-89.9782,1015.86,11111222 
WAVCIS,ioos:station:WAVCIS:CSI09:1,2008-11-06T05:00:00Z,29.1015,-89.9782,1015.74,11111222 
WAVCIS,ioos:station:WAVCIS:CSI09:1,2008-11-06T06:00:00Z,29.1015,-89.9782,1015.21,11111222 
WAVCIS,ioos:station:WAVCIS:CSI09:1,2008-11-06T07:00:00Z,29.1015,-89.9782,1014.87,11111222 
WAVCIS,ioos:station:WAVCIS:CSI09:1,2008-11-06T08:00:00Z,29.1015,-89.9782,1014.78,11111222 
WAVCIS,ioos:station:WAVCIS:CSI09:1,2008-11-06T09:00:00Z,29.1015,-89.9782,1014.73,11111222 
WAVCIS,ioos:station:WAVCIS:CSI09:1,2008-11-06T10:00:00Z,29.1015,-89.9782,1014.81,11111222 
WAVCIS,ioos:station:WAVCIS:CSI09:1,2008-11-06T11:00:00Z,29.1015,-89.9782,1015.2,11111222 
WAVCIS,ioos:station:WAVCIS:CSI09:1,2008-11-06T12:00:00Z,29.1015,-89.9782,1015.51,11111222 
WAVCIS,ioos:station:WAVCIS:CSI09:1,2008-11-06T13:00:00Z,29.1015,-89.9782,1015.99,11111222 
WAVCIS,ioos:station:WAVCIS:CSI09:1,2008-11-06T14:00:00Z,29.1015,-89.9782,1016.49,11111222 
WAVCIS,ioos:station:WAVCIS:CSI09:1,2008-11-06T15:00:00Z,29.1015,-89.9782,1016.89,11111222 
WAVCIS,ioos:station:WAVCIS:CSI09:1,2008-11-06T16:00:00Z,29.1015,-89.9782,1016.97,11111222 
WAVCIS,ioos:station:WAVCIS:CSI09:1,2008-11-06T17:00:00Z,29.1015,-89.9782,1016.72,11111222 
WAVCIS,ioos:station:WAVCIS:CSI09:1,2008-11-06T18:00:00Z,29.1015,-89.9782,1015.93,11111222 
WAVCIS,ioos:station:WAVCIS:CSI09:1,2008-11-06T19:00:00Z,29.1015,-89.9782,1015.13,11111222 
WAVCIS,ioos:station:WAVCIS:CSI09:1,2008-11-06T20:00:00Z,29.1015,-89.9782,1014.78,11111222 
WAVCIS,ioos:station:WAVCIS:CSI09:1,2008-11-06T21:00:00Z,29.1015,-89.9782,1014.66,11111222 
WAVCIS,ioos:station:WAVCIS:CSI09:1,2008-11-06T22:00:00Z,29.1015,-89.9782,1015.03,11111222 
WAVCIS,ioos:station:WAVCIS:CSI09:1,2008-11-06T23:00:00Z,29.1015,-89.9782,1014.78,11111222 
WAVCIS,ioos:station:WAVCIS:CSI09:1,2008-11-07T00:00:00Z,29.1015,-89.9782,1014.95,11111222 
WAVCIS,ioos:station:WAVCIS:CSI09:1,2008-11-07T01:00:00Z,29.1015,-89.9782,1015.17,11111222 
WAVCIS,ioos:station:WAVCIS:CSI09:1,2008-11-07T02:00:00Z,29.1015,-89.9782,1015.26,11111222 
WAVCIS,ioos:station:WAVCIS:CSI09:1,2008-11-07T03:00:00Z,29.1015,-89.9782,1015.63,11111222 
WAVCIS,ioos:station:WAVCIS:CSI09:1,2008-11-07T04:00:00Z,29.1015,-89.9782,1015.67,11111222 
WAVCIS,ioos:station:WAVCIS:CSI09:1,2008-11-07T05:00:00Z,29.1015,-89.9782,1015.46,11111222 
WAVCIS,ioos:station:WAVCIS:CSI09:1,2008-11-07T06:00:00Z,29.1015,-89.9782,1015.01,11111222 
WAVCIS,ioos:station:WAVCIS:CSI09:1,2008-11-07T07:00:00Z,29.1015,-89.9782,1014.4,11111222 
WAVCIS,ioos:station:WAVCIS:CSI09:1,2008-11-07T08:00:00Z,29.1015,-89.9782,1014.06,11111222 
WAVCIS,ioos:station:WAVCIS:CSI09:1,2008-11-07T09:00:00Z,29.1015,-89.9782,1013.8,11111222 
WAVCIS,ioos:station:WAVCIS:CSI09:1,2008-11-07T10:00:00Z,29.1015,-89.9782,1013.75,11111222 
WAVCIS,ioos:station:WAVCIS:CSI09:1,2008-11-07T11:00:00Z,29.1015,-89.9782,1013.98,11111222 
WAVCIS,ioos:station:WAVCIS:CSI09:1,2008-11-07T12:00:00Z,29.1015,-89.9782,1014.15,11111222 
WAVCIS,ioos:station:WAVCIS:CSI09:1,2008-11-07T13:00:00Z,29.1015,-89.9782,1014.52,11111222 
WAVCIS,ioos:station:WAVCIS:CSI09:1,2008-11-07T14:00:00Z,29.1015,-89.9782,1014.73,11111222 
WAVCIS,ioos:station:WAVCIS:CSI09:1,2008-11-07T15:00:00Z,29.1015,-89.9782,1015.02,11111222 
WAVCIS,ioos:station:WAVCIS:CSI09:1,2008-11-07T16:00:00Z,29.1015,-89.9782,1015.32,11111222 
WAVCIS,ioos:station:WAVCIS:CSI09:1,2008-11-07T17:00:00Z,29.1015,-89.9782,1015.24,11111222 
WAVCIS,ioos:station:WAVCIS:CSI09:1,2008-11-07T18:00:00Z,29.1015,-89.9782,1014.64,11111222 
WAVCIS,ioos:station:WAVCIS:CSI09:1,2008-11-07T19:00:00Z,29.1015,-89.9782,1013.98,11111222 
WAVCIS,ioos:station:WAVCIS:CSI09:1,2008-11-07T20:00:00Z,29.1015,-89.9782,1013.52,11111222 
WAVCIS,ioos:station:WAVCIS:CSI09:1,2008-11-07T21:00:00Z,29.1015,-89.9782,1013.39,11111222 
WAVCIS,ioos:station:WAVCIS:CSI09:1,2008-11-07T22:00:00Z,29.1015,-89.9782,1013.93,11111222 
WAVCIS,ioos:station:WAVCIS:CSI09:1,2008-11-07T23:00:00Z,29.1015,-89.9782,1014.4,11111222 
WAVCIS,ioos:station:WAVCIS:CSI09:1,2008-11-08T00:00:00Z,29.1015,-89.9782,1014.68,11111222 
WAVCIS,ioos:station:WAVCIS:CSI09:1,2008-11-08T01:00:00Z,29.1015,-89.9782,1015.25,11111222 
WAVCIS,ioos:station:WAVCIS:CSI09:1,2008-11-08T02:00:00Z,29.1015,-89.9782,1015.7,11111222 
WAVCIS,ioos:station:WAVCIS:CSI09:1,2008-11-08T03:00:00Z,29.1015,-89.9782,1016.06,11111222 
WAVCIS,ioos:station:WAVCIS:CSI09:1,2008-11-08T04:00:00Z,29.1015,-89.9782,1016.46,11111222 
WAVCIS,ioos:station:WAVCIS:CSI09:1,2008-11-08T05:00:00Z,29.1015,-89.9782,1016.41,11111222 
WAVCIS,ioos:station:WAVCIS:CSI09:1,2008-11-08T06:00:00Z,29.1015,-89.9782,1016.28,11111222 
WAVCIS,ioos:station:WAVCIS:CSI09:1,2008-11-08T07:00:00Z,29.1015,-89.9782,1016.33,11111222 
WAVCIS,ioos:station:WAVCIS:CSI09:1,2008-11-08T08:00:00Z,29.1015,-89.9782,1016.26,11111222 
WAVCIS,ioos:station:WAVCIS:CSI09:1,2008-11-08T09:00:00Z,29.1015,-89.9782,1015.85,11111222 
WAVCIS,ioos:station:WAVCIS:CSI09:1,2008-11-08T10:00:00Z,29.1015,-89.9782,1015.93,11111222 
WAVCIS,ioos:station:WAVCIS:CSI09:1,2008-11-08T11:00:00Z,29.1015,-89.9782,1016.3,11111222 
WAVCIS,ioos:station:WAVCIS:CSI09:1,2008-11-08T12:00:00Z,29.1015,-89.9782,1016.31,11111222 
WAVCIS,ioos:station:WAVCIS:CSI09:1,2008-11-08T13:00:00Z,29.1015,-89.9782,1016.86,11111222 
WAVCIS,ioos:station:WAVCIS:CSI09:1,2008-11-08T14:00:00Z,29.1015,-89.9782,1017.6,11111222 
WAVCIS,ioos:station:WAVCIS:CSI09:1,2008-11-08T15:00:00Z,29.1015,-89.9782,1017.79,11111222 
WAVCIS,ioos:station:WAVCIS:CSI09:1,2008-11-08T16:00:00Z,29.1015,-89.9782,1017.9,11111222 
WAVCIS,ioos:station:WAVCIS:CSI09:1,2008-11-08T17:00:00Z,29.1015,-89.9782,1017.6,11111222 
WAVCIS,ioos:station:WAVCIS:CSI09:1,2008-11-08T18:00:00Z,29.1015,-89.9782,1016.7,11111222 
WAVCIS,ioos:station:WAVCIS:CSI09:1,2008-11-08T19:00:00Z,29.1015,-89.9782,1015.74,11111222 
WAVCIS,ioos:station:WAVCIS:CSI09:1,2008-11-08T20:00:00Z,29.1015,-89.9782,1015.15,11111222 
WAVCIS,ioos:station:WAVCIS:CSI09:1,2008-11-08T21:00:00Z,29.1015,-89.9782,1014.79,11111222 
WAVCIS,ioos:station:WAVCIS:CSI09:1,2008-11-08T22:00:00Z,29.1015,-89.9782,1014.69,11111222 
WAVCIS,ioos:station:WAVCIS:CSI09:1,2008-11-08T23:00:00Z,29.1015,-89.9782,1014.66,11111222 
WAVCIS,ioos:station:WAVCIS:CSI09:1,2008-11-09T00:00:00Z,29.1015,-89.9782,1014.9,11111222 
WAVCIS,ioos:station:WAVCIS:CSI09:1,2008-11-09T01:00:00Z,29.1015,-89.9782,1014.94,11111222 
WAVCIS,ioos:station:WAVCIS:CSI09:1,2008-11-09T02:00:00Z,29.1015,-89.9782,1015.11,11111222 
WAVCIS,ioos:station:WAVCIS:CSI09:1,2008-11-09T03:00:00Z,29.1015,-89.9782,1015.45,11111222 
WAVCIS,ioos:station:WAVCIS:CSI09:1,2008-11-09T04:00:00Z,29.1015,-89.9782,1015.57,11111222 
WAVCIS,ioos:station:WAVCIS:CSI09:1,2008-11-09T05:00:00Z,29.1015,-89.9782,1015.47,11111222 
WAVCIS,ioos:station:WAVCIS:CSI09:1,2008-11-09T06:00:00Z,29.1015,-89.9782,1015.34,11111222 
WAVCIS,ioos:station:WAVCIS:CSI09:1,2008-11-09T07:00:00Z,29.1015,-89.9782,1015.29,11111222 
WAVCIS,ioos:station:WAVCIS:CSI09:1,2008-11-09T08:00:00Z,29.1015,-89.9782,1015.44,11111222 
WAVCIS,ioos:station:WAVCIS:CSI09:1,2008-11-09T09:00:00Z,29.1015,-89.9782,1015.59,11111222 
WAVCIS,ioos:station:WAVCIS:CSI09:1,2008-11-09T10:00:00Z,29.1015,-89.9782,1015.76,11111222 
WAVCIS,ioos:station:WAVCIS:CSI09:1,2008-11-09T11:00:00Z,29.1015,-89.9782,1016.24,11111222 
WAVCIS,ioos:station:WAVCIS:CSI09:1,2008-11-09T12:00:00Z,29.1015,-89.9782,1017.05,11111222 
WAVCIS,ioos:station:WAVCIS:CSI09:1,2008-11-09T13:00:00Z,29.1015,-89.9782,1017.73,11111222 
WAVCIS,ioos:station:WAVCIS:CSI09:1,2008-11-09T14:00:00Z,29.1015,-89.9782,1018.01,11111222 
WAVCIS,ioos:station:WAVCIS:CSI09:1,2008-11-09T15:00:00Z,29.1015,-89.9782,1018.44,11111222 
WAVCIS,ioos:station:WAVCIS:CSI09:1,2008-11-09T16:00:00Z,29.1015,-89.9782,1018.85,11111222 
WAVCIS,ioos:station:WAVCIS:CSI09:1,2008-11-09T17:00:00Z,29.1015,-89.9782,1018.72,11111222 
WAVCIS,ioos:station:WAVCIS:CSI09:1,2008-11-09T18:00:00Z,29.1015,-89.9782,1018.19,11111222 
WAVCIS,ioos:station:WAVCIS:CSI09:1,2008-11-09T19:00:00Z,29.1015,-89.9782,1017.35,11111222 
WAVCIS,ioos:station:WAVCIS:CSI09:1,2008-11-09T20:00:00Z,29.1015,-89.9782,1016.93,11111222 
WAVCIS,ioos:station:WAVCIS:CSI09:1,2008-11-09T21:00:00Z,29.1015,-89.9782,1016.75,11111222 
WAVCIS,ioos:station:WAVCIS:CSI09:1,2008-11-09T22:00:00Z,29.1015,-89.9782,1017.1,11111222 
WAVCIS,ioos:station:WAVCIS:CSI09:1,2008-11-09T23:00:00Z,29.1015,-89.9782,1017.08,11111222 
WAVCIS,ioos:station:WAVCIS:CSI09:1,2008-11-10T00:00:00Z,29.1015,-89.9782,1017.48,11111222 
WAVCIS,ioos:station:WAVCIS:CSI09:1,2008-11-10T01:00:00Z,29.1015,-89.9782,1017.88,11111222 
WAVCIS,ioos:station:WAVCIS:CSI09:1,2008-11-10T02:00:00Z,29.1015,-89.9782,1018.32,11111222 
WAVCIS,ioos:station:WAVCIS:CSI09:1,2008-11-10T03:00:00Z,29.1015,-89.9782,1018.65,11111222 
WAVCIS,ioos:station:WAVCIS:CSI09:1,2008-11-10T04:00:00Z,29.1015,-89.9782,1018.74,11111222 
WAVCIS,ioos:station:WAVCIS:CSI09:1,2008-11-10T05:00:00Z,29.1015,-89.9782,1018.57,11111222 
WAVCIS,ioos:station:WAVCIS:CSI09:1,2008-11-10T06:00:00Z,29.1015,-89.9782,1018.66,11111222 
WAVCIS,ioos:station:WAVCIS:CSI09:1,2008-11-10T07:00:00Z,29.1015,-89.9782,1018.39,11111222 
WAVCIS,ioos:station:WAVCIS:CSI09:1,2008-11-10T08:00:00Z,29.1015,-89.9782,1018.18,11111222 
WAVCIS,ioos:station:WAVCIS:CSI09:1,2008-11-10T09:00:00Z,29.1015,-89.9782,1017.99,11111222 
WAVCIS,ioos:station:WAVCIS:CSI09:1,2008-11-10T10:00:00Z,29.1015,-89.9782,1018.39,11111222 
WAVCIS,ioos:station:WAVCIS:CSI09:1,2008-11-10T11:00:00Z,29.1015,-89.9782,1018.47,11111222 
WAVCIS,ioos:station:WAVCIS:CSI09:1,2008-11-10T12:00:00Z,29.1015,-89.9782,1019.0,11111222 
WAVCIS,ioos:station:WAVCIS:CSI09:1,2008-11-10T13:00:00Z,29.1015,-89.9782,1019.69,11111222 
WAVCIS,ioos:station:WAVCIS:CSI09:1,2008-11-10T14:00:00Z,29.1015,-89.9782,1020.14,11111222 
WAVCIS,ioos:station:WAVCIS:CSI09:1,2008-11-10T15:00:00Z,29.1015,-89.9782,1020.1,11111222 
WAVCIS,ioos:station:WAVCIS:CSI09:1,2008-11-10T16:00:00Z,29.1015,-89.9782,1020.17,11111222 
WAVCIS,ioos:station:WAVCIS:CSI09:1,2008-11-10T17:00:00Z,29.1015,-89.9782,1019.63,11111222 
WAVCIS,ioos:station:WAVCIS:CSI09:1,2008-11-10T18:00:00Z,29.1015,-89.9782,1018.79,11111222 
WAVCIS,ioos:station:WAVCIS:CSI09:1,2008-11-10T19:00:00Z,29.1015,-89.9782,1017.9,11111222 
WAVCIS,ioos:station:WAVCIS:CSI09:1,2008-11-10T20:00:00Z,29.1015,-89.9782,1017.85,11111222 
WAVCIS,ioos:station:WAVCIS:CSI09:1,2008-11-10T21:00:00Z,29.1015,-89.9782,1018.09,11111222 
WAVCIS,ioos:station:WAVCIS:CSI09:1,2008-11-10T22:00:00Z,29.1015,-89.9782,1017.87,11111222 
WAVCIS,ioos:station:WAVCIS:CSI09:1,2008-11-10T23:00:00Z,29.1015,-89.9782,1017.79,11111222 
WAVCIS,ioos:station:WAVCIS:CSI09:1,2008-11-11T00:00:00Z,29.1015,-89.9782,1017.9,11111222 
WAVCIS,ioos:station:WAVCIS:CSI09:1,2008-11-11T01:00:00Z,29.1015,-89.9782,1017.97,11111222 
WAVCIS,ioos:station:WAVCIS:CSI09:1,2008-11-11T02:00:00Z,29.1015,-89.9782,1018.32,11111222 
WAVCIS,ioos:station:WAVCIS:CSI09:1,2008-11-11T03:00:00Z,29.1015,-89.9782,1018.35,11111222 
WAVCIS,ioos:station:WAVCIS:CSI09:1,2008-11-11T04:00:00Z,29.1015,-89.9782,1018.19,11111222 
WAVCIS,ioos:station:WAVCIS:CSI09:1,2008-11-11T05:00:00Z,29.1015,-89.9782,1017.77,11111222 
WAVCIS,ioos:station:WAVCIS:CSI09:1,2008-11-11T06:00:00Z,29.1015,-89.9782,1017.53,11111222 
WAVCIS,ioos:station:WAVCIS:CSI09:1,2008-11-11T07:00:00Z,29.1015,-89.9782,1017.41,11111222 
WAVCIS,ioos:station:WAVCIS:CSI09:1,2008-11-11T08:00:00Z,29.1015,-89.9782,1016.89,11111222 
WAVCIS,ioos:station:WAVCIS:CSI09:1,2008-11-11T09:00:00Z,29.1015,-89.9782,1016.65,11111222 
WAVCIS,ioos:station:WAVCIS:CSI09:1,2008-11-11T10:00:00Z,29.1015,-89.9782,1016.44,11111222 
WAVCIS,ioos:station:WAVCIS:CSI09:1,2008-11-11T11:00:00Z,29.1015,-89.9782,1016.75,11111222 
WAVCIS,ioos:station:WAVCIS:CSI09:1,2008-11-11T12:00:00Z,29.1015,-89.9782,1017.35,11111222 
WAVCIS,ioos:station:WAVCIS:CSI09:1,2008-11-11T13:00:00Z,29.1015,-89.9782,1017.73,11111222 
WAVCIS,ioos:station:WAVCIS:CSI09:1,2008-11-11T14:00:00Z,29.1015,-89.9782,1017.91,11111222 
WAVCIS,ioos:station:WAVCIS:CSI09:1,2008-11-11T15:00:00Z,29.1015,-89.9782,1018.18,11111222 
WAVCIS,ioos:station:WAVCIS:CSI09:1,2008-11-11T16:00:00Z,29.1015,-89.9782,1018.33,11111222 
WAVCIS,ioos:station:WAVCIS:CSI09:1,2008-11-11T17:00:00Z,29.1015,-89.9782,1017.67,11111222 
WAVCIS,ioos:station:WAVCIS:CSI09:1,2008-11-11T18:00:00Z,29.1015,-89.9782,1016.93,11111222 
WAVCIS,ioos:station:WAVCIS:CSI09:1,2008-11-11T19:00:00Z,29.1015,-89.9782,1016.01,11111222 
WAVCIS,ioos:station:WAVCIS:CSI09:1,2008-11-11T20:00:00Z,29.1015,-89.9782,1015.68,11111222 
WAVCIS,ioos:station:WAVCIS:CSI09:1,2008-11-11T21:00:00Z,29.1015,-89.9782,1015.53,11111222 
WAVCIS,ioos:station:WAVCIS:CSI09:1,2008-11-11T22:00:00Z,29.1015,-89.9782,1015.44,11111222 